This is the latest recevied weather packets stored in our database for station/object W0AVQ. If no packets are shown the sender has not sent any weather packets the latest 10 day(s).
| Time | Temp. | Humidity | Pressure | Rain* | Wind** | Luminosity | Snow |
|---|---|---|---|---|---|---|---|
| 1777940845 | 23.89° C | 51% | 1008.3 hPa | 0 mm | - | 11 W/m² | - |
| 1777940543 | 23.89° C | 50% | 1008.2 hPa | 0 mm | - | 16 W/m² | - |
| 1777940240 | 23.89° C | 51% | 1008 hPa | 0 mm | - | 19 W/m² | - |
| 1777939937 | 23.89° C | 51% | 1008.2 hPa | 0 mm | - | 16 W/m² | - |
| 1777939634 | 24.44° C | 51% | 1008.3 hPa | 0 mm | - | 17 W/m² | - |
| 1777939332 | 25° C | 49% | 1008.2 hPa | 0 mm | - | 21 W/m² | - |
| 1777939028 | 25° C | 49% | 1008.5 hPa | 0 mm | - | 32 W/m² | - |
| 1777938724 | 25° C | 50% | 1008.6 hPa | 0 mm | - | 39 W/m² | - |
| 1777938422 | 25° C | 49% | 1008.3 hPa | 0 mm | - | 59 W/m² | - |
| 1777938119 | 25° C | 49% | 1008.6 hPa | 0 mm | - | 49 W/m² | - |
| 1777937815 | 25° C | 49% | 1008.6 hPa | 0 mm | - | 38 W/m² | - |
| 1777937511 | 25.56° C | 48% | 1008.5 hPa | 0 mm | - | 46 W/m² | - |
| 1777937209 | 25.56° C | 47% | 1008.6 hPa | 0 mm | - | 89 W/m² | - |
| 1777936905 | 25.56° C | 48% | 1008.6 hPa | 0 mm | - | 83 W/m² | - |
| 1777936602 | 25.56° C | 48% | 1008.6 hPa | 0 mm | - | 111 W/m² | - |
| 1777936298 | 25.56° C | 48% | 1008.8 hPa | 0 mm | - | 123 W/m² | - |
| 1777935995 | 25.56° C | 48% | 1008.9 hPa | 0 mm | - | 58 W/m² | - |
| 1777935694 | 26.11° C | 46% | 1008.5 hPa | 0 mm | - | 178 W/m² | - |
| 1777935392 | 26.11° C | 47% | 1008.8 hPa | 0 mm | - | 208 W/m² | - |
| 1777935087 | 25.56° C | 47% | 1009.1 hPa | 0 mm | - | 162 W/m² | - |
| 1777934784 | 25.56° C | 48% | 1008.8 hPa | 0 mm | - | 149 W/m² | - |
| 1777934481 | 25.56° C | 48% | 1008.9 hPa | 0 mm | - | 150 W/m² | - |
| 1777934178 | 25.56° C | 47% | 1008.7 hPa | 0 mm | - | 116 W/m² | - |
| 1777933874 | 25.56° C | 46% | 1008.7 hPa | 0 mm | - | 116 W/m² | - |
| 1777933571 | 25.56° C | 47% | 1009 hPa | 0 mm | - | 117 W/m² | - |
* Rain latest hour (hover to see other rain measurements)
** Current wind speed in m/s (hover to see current wind gust speed)